Crescent City, CA

5:30 PM PDT on April 22, 2018 (GMT -0700)
McNamara

Weather History for KCEC - April, 2013

Change the Weather History Date:

Friday, April 5, 2013

  Actual Average Record
Temperature  
Mean Temperature 54 °F 49 °F  
Max Temperature 56 °F 54 °F 68 °F (1952)
Min Temperature 51 °F 43 °F 33 °F (1997)
Degree Days  
Heating Degree Days 12 16  
Month to date heating degree days 80  
Since 1 July heating degree days 3766  
Cooling Degree Days 0 0  
Month to date cooling degree days 0  
Year to date cooling degree days 0  
Growing Degree Days 3 (Base 50)    
Moisture  
Dew Point 51 °F    
Average Humidity 93    
Maximum Humidity 100    
Minimum Humidity 86    
Precipitation  
Precipitation 0.19 in 0.22 in 3.08 in (1993)
Month to date precipitation 1.18 1.12  
Year to date precipitation 14.44 28.25  
Since 1 July precipitation 48.14  
Snow  
Snow 0.00 in - - ()
Month to date snowfall 0.0  
Since 1 July snowfall 0.0  
Snow Depth -    
Sea Level Pressure  
Sea Level Pressure 30.08 in    
Wind  
Wind Speed 14 mph (SSE)    
Max Wind Speed 20 mph    
Max Gust Speed 25 mph    
Visibility 6 miles    
Events Rain    
T = Trace of Precipitation, MM = Missing Value Source: NWS Daily Summary

Daily Weather History Graph

Daily Weather History Graph

Search for Another Location

Airport or City:

Astronomy

Apr. 05, 2013 Rise Set
Actual Time 6:52 AM PDT 7:47 PM PDT
Civil Twilight 6:24 AM PDT 8:15 PM PDT
Nautical Twilight 5:50 AM PDT 8:49 PM PDT
Astronomical Twilight 5:15 AM PDT 9:24 PM PDT
Moon 4:07 AM PDT (4/5) 3:13 PM PDT (4/5)
Length of Visible Light 13h 51m
Length of Day
12h 54m
Waning Crescent, 22% of the Moon is Illuminated
Apr 5
Waning Crescent
Apr 10
New
Apr 18
First Quarter
Apr 25
Full
May 2
Last Quarter

Hourly Weather History & Observations

Time (PDT) Temp. Dew Point Humidity Pressure Visibility Wind Dir Wind Speed Gust Speed Precip Events Conditions
12:56 AM 52.0 °F 51.1 °F 97% 30.06 in 6.0 mi South 12.7 mph - N/A   Overcast
1:56 AM 52.0 °F 51.1 °F 97% 30.07 in 2.0 mi SSE 16.1 mph - 0.01 in Rain Light Rain
2:26 AM 51.8 °F 51.8 °F 100% 30.06 in 4.0 mi SSE 11.5 mph - 0.03 in Rain Light Rain
2:56 AM 52.0 °F 51.1 °F 97% 30.07 in 6.0 mi SSE 11.5 mph - 0.03 in   Overcast
3:08 AM 51.8 °F 51.8 °F 100% 30.07 in 6.0 mi SSE 13.8 mph - N/A   Overcast
3:31 AM 51.8 °F 51.8 °F 100% 30.07 in 7.0 mi SSE 13.8 mph 20.7 mph N/A   Overcast
3:56 AM 51.1 °F 51.1 °F 100% 30.08 in 3.0 mi SSE 13.8 mph 21.9 mph N/A   Overcast
4:56 AM 51.1 °F 51.1 °F 100% 30.07 in 8.0 mi SSE 11.5 mph - N/A   Overcast
5:56 AM 52.0 °F 51.1 °F 97% 30.07 in 8.0 mi SSE 16.1 mph 21.9 mph N/A   Overcast
6:56 AM 52.0 °F 51.1 °F 97% 30.08 in 8.0 mi SSE 13.8 mph - N/A   Overcast
7:56 AM 52.0 °F 51.1 °F 97% 30.09 in 6.0 mi SSE 11.5 mph - 0.00 in   Overcast
8:42 AM 51.8 °F 51.8 °F 100% 30.10 in 8.0 mi SSE 12.7 mph - N/A   Overcast
8:49 AM 53.6 °F 51.8 °F 94% 30.10 in 8.0 mi SSE 12.7 mph - N/A   Overcast
8:56 AM 53.1 °F 51.1 °F 93% 30.10 in 9.0 mi SSE 13.8 mph - N/A   Overcast
9:26 AM 53.6 °F 51.8 °F 94% 30.10 in 9.0 mi SSE 15.0 mph - N/A   Overcast
9:56 AM 54.0 °F 51.1 °F 90% 30.11 in 10.0 mi SSE 16.1 mph 23.0 mph N/A   Overcast
10:56 AM 54.0 °F 52.0 °F 93% 30.12 in 6.0 mi SSE 12.7 mph - N/A   Overcast
11:09 AM 53.6 °F 51.8 °F 94% 30.12 in 6.0 mi South 13.8 mph - N/A   Overcast
11:37 AM 53.6 °F 51.8 °F 94% 30.12 in 10.0 mi SSE 12.7 mph - N/A   Overcast
11:56 AM 54.0 °F 52.0 °F 93% 30.12 in 9.0 mi SSE 12.7 mph - N/A   Overcast
12:19 PM 53.6 °F 51.8 °F 94% 30.12 in 10.0 mi SSE 16.1 mph - N/A   Overcast
12:52 PM 53.6 °F 51.8 °F 94% 30.11 in 10.0 mi SSE 13.8 mph - N/A   Overcast
12:56 PM 55.0 °F 52.0 °F 89% 30.12 in 10.0 mi SSE 15.0 mph 24.2 mph N/A   Overcast
1:33 PM 55.4 °F 51.8 °F 88% 30.11 in 10.0 mi SSE 16.1 mph - N/A   Overcast
1:56 PM 54.0 °F 51.1 °F 90% 30.11 in 10.0 mi SSE 16.1 mph - N/A   Overcast
2:05 PM 53.6 °F 50.0 °F 88% 30.11 in 10.0 mi SSE 15.0 mph - N/A   Overcast
2:56 PM 53.1 °F 51.1 °F 93% 30.11 in 4.0 mi SSE 15.0 mph - 0.03 in Rain Rain
3:04 PM 53.6 °F 51.8 °F 94% 30.10 in 5.0 mi SSE 12.7 mph - 0.01 in Rain Light Rain
3:53 PM 53.6 °F 51.8 °F 94% 30.09 in 4.0 mi SSE 13.8 mph - 0.08 in Rain Rain
3:56 PM 53.1 °F 51.1 °F 93% 30.10 in 5.0 mi SSE 12.7 mph - 0.08 in Rain Light Rain
4:22 PM 53.6 °F 51.8 °F 94% 30.07 in 5.0 mi SE 16.1 mph - 0.02 in Rain Light Rain
4:48 PM 53.6 °F 51.8 °F 94% 30.07 in 6.0 mi SSE 17.3 mph - 0.03 in Rain Light Rain
4:56 PM 53.1 °F 51.1 °F 93% 30.08 in 6.0 mi SSE 15.0 mph - 0.04 in Rain Light Rain
5:17 PM 53.6 °F 51.8 °F 94% 30.07 in 6.0 mi South 19.6 mph 25.3 mph 0.01 in Rain Light Rain
5:44 PM 53.6 °F 51.8 °F 94% 30.06 in 8.0 mi South 17.3 mph - 0.02 in Rain Light Rain
5:56 PM 53.1 °F 51.1 °F 93% 30.06 in 8.0 mi SSE 17.3 mph - 0.02 in Rain Light Rain
6:23 PM 53.6 °F 50.0 °F 88% 30.05 in 7.0 mi South 18.4 mph - 0.01 in Rain Light Rain
6:32 PM 53.6 °F 50.0 °F 88% 30.05 in 6.0 mi South 17.3 mph - 0.01 in Rain Light Rain
6:56 PM 53.1 °F 50.0 °F 89% 30.05 in 5.0 mi South 18.4 mph 28.8 mph 0.02 in Rain Light Rain
7:12 PM 51.8 °F 50.0 °F 94% 30.05 in 3.0 mi South 20.7 mph 27.6 mph 0.01 in Rain Light Rain
7:42 PM 51.8 °F 50.0 °F 94% 30.04 in 2.5 mi South 24.2 mph 29.9 mph 0.05 in Rain Rain
7:47 PM 51.8 °F 50.0 °F 94% 30.04 in 3.0 mi South 21.9 mph - 0.06 in Rain Rain
7:56 PM 53.1 °F 50.0 °F 89% 30.04 in 5.0 mi South 24.2 mph 31.1 mph 0.06 in Rain Light Rain
8:36 PM 51.8 °F 50.0 °F 94% 30.04 in 9.0 mi SSE 19.6 mph 28.8 mph 0.01 in Rain Light Rain
8:56 PM 52.0 °F 50.0 °F 93% 30.04 in 7.0 mi SSE 17.3 mph 24.2 mph 0.01 in   Overcast
9:09 PM 51.8 °F 50.0 °F 94% 30.04 in 8.0 mi SSE 17.3 mph 25.3 mph 0.00 in Rain Light Rain
9:31 PM 51.8 °F 50.0 °F 94% 30.05 in 4.0 mi SSE 17.3 mph 25.3 mph 0.04 in Rain Rain
9:56 PM 52.0 °F 50.0 °F 93% 30.05 in 4.0 mi SSE 19.6 mph 26.5 mph 0.07 in Rain Rain
10:07 PM 51.8 °F 50.0 °F 94% 30.05 in 3.0 mi SSE 20.7 mph 26.5 mph 0.03 in Rain Rain
10:26 PM 51.8 °F 50.0 °F 94% 30.05 in 2.5 mi SSE 17.3 mph - 0.06 in Rain Rain
10:56 PM 52.0 °F 50.0 °F 93% 30.06 in 2.5 mi South 19.6 mph - 0.10 in Rain Rain
11:13 PM 51.8 °F 50.0 °F 94% 30.05 in 3.0 mi South 17.3 mph - 0.04 in Rain Rain
11:23 PM 51.8 °F 51.8 °F 100% 30.05 in 4.0 mi South 16.1 mph - 0.05 in Rain Light Rain
11:56 PM 52.0 °F 51.1 °F 97% 30.05 in 2.5 mi South 15.0 mph - 0.09 in Rain Rain